{"data":{"norad_id":59751,"epoch":"2026-09-21T01:20:57.941088Z","epoch_age_seconds":123123,"freshness":"FRESH","line1":"1 59751U 24090X   26264.05622617  .00001261  00000+0  55344-4 0  9995","line2":"2 59751  43.0005 159.7594 0001197 272.3752  87.6963 15.27582550133317","mean_motion":15.2758255,"eccentricity":0.0001197,"inclination_deg":43.0005,"raan_deg":159.7594,"arg_perigee_deg":272.3752,"mean_anomaly_deg":87.6963,"bstar":5.5344e-5,"rev_number":13331,"period_min":94.26659135377,"perigee_km":482.2201773712,"apogee_km":483.86274349463,"semimajor_km":6861.1784604329,"source":"CELESTRAK","updated_at":"2026-09-22T09:00:49.066337Z"}}